Selinsgrove, PA

4:16 PM EST on December 09, 2019 (GMT -0500)
Penn Valley

Weather History for KSEG - November, 2019

Change the Weather History Date:

Tuesday, November 12, 2019

  Actual Average (WUND) Record (WUND)
Temperature  
Mean Temperature 34 °F -  
Max Temperature 45 °F - - (-1)
Min Temperature 21 °F - - (-1)
Degree Days  
Heating Degree Days 31    
Moisture  
Dew Point 25 °F    
Average Humidity 72    
Maximum Humidity 97    
Minimum Humidity 44    
Precipitation  
Precipitation 0.19 in - - ()
Sea Level Pressure  
Sea Level Pressure 29.98 in    
Wind  
Wind Speed 8 mph (NNW)    
Max Wind Speed 17 mph    
Max Gust Speed 24 mph    
Visibility 9 miles    
Events Rain , Snow    
Averages and records for this station are not official NWS values.
T = Trace of Precipitation, MM = Missing Value Source: NWS Daily Summary

Daily Weather History Graph

Daily Weather History Graph

Search for Another Location

Airport or City:

Astronomy

Nov. 12, 2019 Rise Set
Actual Time 6:50 AM EST 4:51 PM EST
Civil Twilight 6:21 AM EST 5:21 PM EST
Nautical Twilight 5:48 AM EST 5:54 PM EST
Astronomical Twilight 5:16 AM EST 6:26 PM EST
Moon 5:18 PM EST (11/12) 6:39 AM EST (11/12)
Length of Visible Light 10h 59m
Length of Day
10h 01m
Full, 100% of the Moon is Illuminated
Nov 12
Full
Nov 19
Last Quarter
Nov 26
New
Dec 4
First Quarter
Dec 12
Full

Hourly Weather History & Observations

Time (EST) Temp. Windchill Dew Point Humidity Pressure Visibility Wind Dir Wind Speed Gust Speed Precip Events Conditions
12:53 AM 45.0 °F - 39.9 °F 82% 29.71 in 10.0 mi Calm Calm - N/A   Overcast
1:53 AM 45.0 °F 39.3 °F 41.0 °F 86% 29.75 in 6.0 mi NW 11.5 mph - 0.04 in Rain Light Rain
2:53 AM 44.1 °F 42.5 °F 42.1 °F 93% 29.75 in 7.0 mi North 3.5 mph - 0.03 in Rain Light Rain
3:36 AM 43.0 °F - 42.1 °F 97% 29.75 in 4.0 mi Calm Calm - 0.05 in Rain Light Rain
3:53 AM 43.0 °F 40.3 °F 41.0 °F 93% 29.77 in 5.0 mi Variable 4.6 mph - 0.07 in Rain Light Rain
4:17 AM 41.0 °F 34.3 °F 39.0 °F 93% 29.79 in 7.0 mi NNW 11.5 mph - 0.03 in Rain Light Rain
4:24 AM 39.9 °F 33.9 °F 37.9 °F 93% 29.80 in 8.0 mi NNW 9.2 mph - 0.03 in Rain Light Rain
4:38 AM 37.9 °F 28.5 °F 34.0 °F 86% 29.82 in 10.0 mi NNW 17.3 mph 24.2 mph 0.04 in Rain Light Rain
4:53 AM 36.0 °F 26.7 °F 33.1 °F 89% 29.84 in 10.0 mi NNW 15.0 mph 24.2 mph 0.05 in   Overcast
5:07 AM 36.0 °F 27.1 °F 32.0 °F 86% 29.85 in 10.0 mi NNW 13.8 mph 20.7 mph 0.00 in   Overcast
5:30 AM 34.0 °F 26.0 °F 30.9 °F 89% 29.87 in 5.0 mi North 10.4 mph - 0.00 in Snow Light Snow
5:39 AM 33.1 °F 23.9 °F 30.0 °F 89% 29.87 in 4.0 mi North 12.7 mph - 0.00 in Snow Light Snow
5:53 AM 33.1 °F 25.5 °F 30.0 °F 89% 29.90 in 9.0 mi North 9.2 mph 17.3 mph 0.00 in Snow Light Snow
6:28 AM 33.1 °F 26.1 °F 28.0 °F 82% 29.91 in 10.0 mi North 8.1 mph - 0.00 in   Overcast
6:45 AM 33.1 °F 24.9 °F 27.0 °F 78% 29.92 in 10.0 mi North 10.4 mph - 0.00 in   Overcast
6:53 AM 33.1 °F 26.9 °F 27.0 °F 78% 29.94 in 10.0 mi North 6.9 mph - 0.00 in   Overcast
7:37 AM 33.1 °F 26.9 °F 26.1 °F 75% 29.96 in 10.0 mi NNW 6.9 mph - N/A   Overcast
7:53 AM 33.1 °F 26.1 °F 26.1 °F 75% 29.98 in 10.0 mi NNW 8.1 mph - N/A   Overcast
8:53 AM 32.0 °F 20.8 °F 23.0 °F 69% 30.01 in 10.0 mi NNW 17.3 mph 23.0 mph N/A   Clear
9:53 AM 32.0 °F 24.2 °F 23.0 °F 69% 30.04 in 10.0 mi NNW 9.2 mph - N/A   Mostly Cloudy
10:36 AM 32.0 °F 23.6 °F 23.0 °F 69% 30.03 in 10.0 mi NNW 10.4 mph - N/A   Overcast
10:53 AM 32.0 °F 24.8 °F 23.0 °F 69% 30.05 in 10.0 mi NW 8.1 mph - N/A   Overcast
11:45 AM 32.0 °F 21.2 °F 21.9 °F 66% 30.04 in 10.0 mi NNW 16.1 mph - N/A   Mostly Cloudy
11:53 AM 32.0 °F 22.1 °F 21.0 °F 64% 30.05 in 10.0 mi NNW 13.8 mph 21.9 mph N/A   Mostly Cloudy
12:53 PM 35.1 °F 26.9 °F 23.0 °F 61% 30.04 in 9.0 mi NNW 11.5 mph - 0.00 in Snow Light Snow
1:53 PM 35.1 °F 28.6 °F 23.0 °F 61% 30.04 in 10.0 mi North 8.1 mph - 0.00 in   Mostly Cloudy
2:53 PM 34.0 °F 24.6 °F 19.9 °F 56% 30.05 in 10.0 mi North 13.8 mph 23.0 mph N/A   Scattered Clouds
3:53 PM 33.1 °F 23.0 °F 15.1 °F 48% 30.07 in 10.0 mi NNW 15.0 mph - N/A   Partly Cloudy
4:53 PM 30.9 °F 19.8 °F 14.0 °F 50% 30.11 in 10.0 mi NNW 16.1 mph - 0.00 in   Partly Cloudy
5:53 PM 28.9 °F 18.2 °F 14.0 °F 54% 30.15 in 10.0 mi NNW 13.8 mph - N/A   Clear
6:53 PM 27.0 °F 15.6 °F 9.0 °F 47% 30.20 in 10.0 mi NNW 13.8 mph - N/A   Clear
7:53 PM 26.1 °F 16.2 °F 8.1 °F 47% 30.22 in 10.0 mi NNW 10.4 mph - N/A   Clear
8:53 PM 24.1 °F 19.7 °F 10.0 °F 55% 30.25 in 10.0 mi NNW 3.5 mph - N/A   Clear
9:53 PM 24.1 °F 13.7 °F 5.0 °F 44% 30.27 in 10.0 mi NW 10.4 mph - N/A   Clear
10:53 PM 23.0 °F 14.7 °F 6.1 °F 48% 30.27 in 10.0 mi NW 6.9 mph - N/A   Clear
11:53 PM 21.9 °F 14.5 °F 6.1 °F 51% 30.28 in 10.0 mi NW 5.8 mph - N/A   Clear